Weather History for KITR - October, 2011

Change the Weather History Date:

Tuesday, October 18, 2011

  Actual Average Record
Temperature  
Mean Temperature 44 °F 50 °F  
Max Temperature 56 °F 65 °F 90 °F (1926)
Min Temperature 31 °F 36 °F 24 °F (1996)
Degree Days  
Heating Degree Days 22    
Moisture  
Dew Point 27 °F    
Average Humidity 61    
Maximum Humidity 89    
Minimum Humidity 29    
Precipitation  
Precipitation 0.00 in 0.05 in 1.30 in (1960)
Month to date precipitation 0.56 0.72  
Year to date precipitation 15.66 16.01  
Sea Level Pressure  
Sea Level Pressure 30.27 in    
Wind  
Wind Speed 12 mph (NW)    
Max Wind Speed 22 mph    
Max Gust Speed 32 mph    
Visibility 9 miles    
Events      
T = Trace of Precipitation, MM = Missing Value Source: NWS Daily Summary

Daily Weather History Graph

Daily Weather History Graph

Search for Another Location

Airport or City:

Trip Planner

Search our weather history database for the weather conditions in past years. The results will help you decide how hot, cold, wet, or windy it might be!

Date:

Astronomy

Oct. 18, 2011 Rise Set
Actual Time 7:01 AM MDT 6:06 PM MDT
Civil Twilight 6:34 AM MDT 6:33 PM MDT
Nautical Twilight 6:03 AM MDT 7:04 PM MDT
Astronomical Twilight 5:32 AM MDT 7:35 PM MDT
Moon 10:50 PM MDT (10/18) 12:52 PM MDT (10/18)
Length of Visible Light 11h 58m
Length of Day
11h 04m
Waning Gibbous, 64% of the Moon is Illuminated
Oct 18
Waning Gibbous
Oct 19
Last Quarter
Oct 26
New
Nov 2
First Quarter
Nov 10
Full

Hourly Weather History & Observations

Time (MDT) Temp. Windchill Dew Point Humidity Pressure Visibility Wind Dir Wind Speed Gust Speed Precip Events Conditions
12:53 AM 33.1 °F 25.5 °F 30.0 °F 89% 30.25 in 10.0 mi West 9.2 mph - N/A   Clear
1:53 AM 33.1 °F 25.5 °F 30.0 °F 89% 30.25 in 10.0 mi West 9.2 mph - N/A   Clear
2:53 AM 35.1 °F 26.4 °F 30.9 °F 85% 30.24 in 10.0 mi WNW 12.7 mph - N/A   Clear
3:53 AM 36.0 °F 27.1 °F 30.9 °F 82% 30.25 in 10.0 mi NW 13.8 mph - N/A   Clear
4:53 AM 36.0 °F 27.1 °F 30.9 °F 82% 30.26 in 10.0 mi NNW 13.8 mph - N/A   Clear
5:53 AM 34.0 °F 26.6 °F 28.9 °F 82% 30.29 in 10.0 mi NW 9.2 mph - N/A   Clear
6:53 AM 32.0 °F 24.2 °F 28.0 °F 85% 30.32 in 10.0 mi NW 9.2 mph - N/A   Clear
7:53 AM 35.1 °F 27.4 °F 30.0 °F 82% 30.33 in 10.0 mi NW 10.4 mph - N/A   Mostly Cloudy
9:53 AM 46.0 °F 39.0 °F 28.0 °F 50% 30.35 in 10.0 mi NNW 17.3 mph 24.2 mph N/A   Clear
10:53 AM 48.9 °F - 27.0 °F 43% 30.34 in 10.0 mi NNW 18.4 mph 27.6 mph N/A   Mostly Cloudy
12:53 PM 53.1 °F - 24.1 °F 32% 30.28 in 9.0 mi North 18.4 mph 28.8 mph N/A   Clear
1:53 PM 55.0 °F - 23.0 °F 29% 30.26 in 7.0 mi NNW 21.9 mph 31.1 mph N/A   Scattered Clouds
2:53 PM 53.1 °F - 21.9 °F 30% 30.25 in 8.0 mi North 18.4 mph 31.1 mph N/A   Mostly Cloudy
3:53 PM 54.0 °F - 23.0 °F 30% 30.23 in 7.0 mi NNW 20.7 mph 27.6 mph N/A   Scattered Clouds
4:53 PM 53.1 °F - 24.1 °F 32% 30.23 in 7.0 mi NNW 20.7 mph 32.2 mph N/A   Partly Cloudy
5:53 PM 50.0 °F - 26.1 °F 39% 30.25 in 8.0 mi North 11.5 mph 20.7 mph N/A   Clear
7:53 PM 43.0 °F 37.7 °F 26.1 °F 51% 30.26 in 10.0 mi North 9.2 mph - N/A   Clear
8:53 PM 39.0 °F 33.4 °F 26.1 °F 60% 30.26 in 10.0 mi NNW 8.1 mph - N/A   Clear
9:53 PM 39.0 °F 33.4 °F 26.1 °F 60% 30.25 in 10.0 mi NW 8.1 mph - N/A   Clear
10:53 PM 32.0 °F 24.2 °F 25.0 °F 75% 30.26 in 10.0 mi WNW 9.2 mph - N/A   Clear
11:53 PM 33.1 °F 26.1 °F 25.0 °F 72% 30.25 in 10.0 mi NW 8.1 mph - N/A   Clear